Ada, OK

7:26 AM CDT on May 28, 2017 (GMT -0500)
Ada Municipal

Weather History for KADH - April, 2013

Change the Weather History Date:

Wednesday, April 17, 2013

  Actual Average Record
Temperature  
Mean Temperature 66 °F -  
Max Temperature 78 °F 75 °F 100 °F (2006)
Min Temperature 53 °F 49 °F 32 °F (1921)
Growing Degree Days 16 (Base 50)    
Moisture  
Dew Point 65 °F    
Average Humidity 83    
Maximum Humidity 100    
Minimum Humidity 65    
Precipitation  
Precipitation 0.00 in - - ()
Sea Level Pressure  
Sea Level Pressure 29.77 in    
Wind  
Wind Speed 11 mph (SSE)    
Max Wind Speed 30 mph    
Max Gust Speed 40 mph    
Visibility 9 miles    
Events      
Averages and records for this station are not official NWS values.
T = Trace of Precipitation, MM = Missing Value Source: NWS Daily Summary

Daily Weather History Graph

Daily Weather History Graph

Search for Another Location

Airport or City:

Trip Planner

Search our weather history database for the weather conditions in past years. The results will help you decide how hot, cold, wet, or windy it might be!

Date:

Astronomy

Apr. 17, 2013 Rise Set
Actual Time 6:52 AM CDT 8:00 PM CDT
Civil Twilight 6:25 AM CDT 8:26 PM CDT
Nautical Twilight 5:54 AM CDT 8:58 PM CDT
Astronomical Twilight 5:22 AM CDT 9:30 PM CDT
Moon 12:11 PM CDT (4/17) 1:34 AM CDT (4/17)
Length of Visible Light 14h 01m
Length of Day
13h 08m
Waxing Crescent, 42% of the Moon is Illuminated
Apr 17
Waxing Crescent
Apr 18
First Quarter
Apr 25
Full
May 2
Last Quarter
May 9
New

Hourly Weather History & Observations

Time (CDT) Temp. Dew Point Humidity Pressure Visibility Wind Dir Wind Speed Gust Speed Precip Events Conditions
12:15 AM 57.2 °F 55.4 °F 94% 29.90 in 10.0 mi NE 5.8 mph - N/A   Mostly Cloudy
12:35 AM 57.2 °F 55.4 °F 94% 29.90 in 10.0 mi NE 3.5 mph - N/A   Mostly Cloudy
12:55 AM 55.4 °F 53.6 °F 94% 29.89 in 10.0 mi Calm Calm - N/A   Scattered Clouds
1:15 AM 55.4 °F 53.6 °F 94% 29.89 in 10.0 mi Calm Calm - N/A   Clear
1:35 AM 55.4 °F 53.6 °F 94% 29.89 in 10.0 mi Calm Calm - N/A   Clear
1:55 AM 55.4 °F 53.6 °F 94% 29.89 in 10.0 mi Calm Calm - N/A   Clear
2:15 AM 55.4 °F 53.6 °F 94% 29.89 in 7.0 mi Calm Calm - N/A   Clear
2:35 AM 53.6 °F 53.6 °F 100% 29.88 in 7.0 mi Calm Calm - N/A   Clear
2:55 AM 55.4 °F 55.4 °F 100% 29.87 in 7.0 mi Calm Calm - N/A   Scattered Clouds
3:15 AM 55.4 °F 55.4 °F 100% 29.87 in 7.0 mi Calm Calm - N/A   Mostly Cloudy
3:35 AM 55.4 °F 55.4 °F 100% 29.87 in 10.0 mi Calm Calm - N/A   Mostly Cloudy
3:55 AM 60.8 °F 60.8 °F 100% 29.86 in 10.0 mi SSE 8.1 mph - N/A   Overcast
4:15 AM 64.4 °F 64.4 °F 100% 29.85 in 10.0 mi SE 8.1 mph - N/A   Mostly Cloudy
4:35 AM 66.2 °F 64.4 °F 94% 29.85 in 10.0 mi SSE 9.2 mph - N/A   Mostly Cloudy
4:55 AM 68.0 °F 66.2 °F 94% 29.85 in 10.0 mi SSE 10.4 mph - N/A   Mostly Cloudy
5:15 AM 69.8 °F 68.0 °F 94% 29.84 in 10.0 mi SSE 16.1 mph 19.6 mph N/A   Overcast
5:35 AM 69.8 °F 68.0 °F 94% 29.84 in 7.0 mi SSE 15.0 mph - N/A   Overcast
5:55 AM 69.8 °F 68.0 °F 94% 29.84 in 7.0 mi South 10.4 mph 21.9 mph N/A   Overcast
6:15 AM 69.8 °F 68.0 °F 94% 29.85 in 5.0 mi South 13.8 mph - N/A   Overcast
6:35 AM 68.0 °F 68.0 °F 100% 29.85 in 4.0 mi South 11.5 mph - N/A   Overcast
6:55 AM 68.0 °F 68.0 °F 100% 29.85 in 2.5 mi SSE 11.5 mph 16.1 mph N/A   Drizzle
7:15 AM 68.0 °F 68.0 °F 100% 29.85 in 3.0 mi SSE 12.7 mph - N/A   Overcast
7:35 AM 68.0 °F 68.0 °F 100% 29.86 in 3.0 mi South 13.8 mph - N/A   Drizzle
7:55 AM 69.8 °F 69.8 °F 100% 29.87 in 3.0 mi South 12.7 mph - N/A   Light Drizzle
8:15 AM 69.8 °F 69.8 °F 100% 29.86 in 4.0 mi South 17.3 mph 25.3 mph N/A   Overcast
8:35 AM 69.8 °F 69.8 °F 100% 29.87 in 5.0 mi South 16.1 mph 20.7 mph N/A   Overcast
9:15 AM 69.8 °F 69.8 °F 100% 29.86 in 5.0 mi South 15.0 mph 21.9 mph N/A   Overcast
9:35 AM 69.8 °F 69.8 °F 100% 29.86 in 5.0 mi South 12.7 mph 20.7 mph N/A   Overcast
9:55 AM 71.6 °F 69.8 °F 94% 29.86 in 7.0 mi South 15.0 mph 23.0 mph N/A   Overcast
10:15 AM 73.4 °F 69.8 °F 88% 29.86 in 7.0 mi South 13.8 mph 24.2 mph N/A   Overcast
10:35 AM 71.6 °F 68.0 °F 88% 29.86 in 10.0 mi South 20.7 mph 26.5 mph N/A   Mostly Cloudy
10:55 AM 73.4 °F 68.0 °F 83% 29.85 in 10.0 mi South 18.4 mph 26.5 mph N/A   Mostly Cloudy
11:15 AM 73.4 °F 68.0 °F 83% 29.85 in 10.0 mi South 18.4 mph 28.8 mph N/A   Mostly Cloudy
11:35 AM 73.4 °F 68.0 °F 83% 29.84 in 10.0 mi SSE 16.1 mph - N/A   Mostly Cloudy
11:55 AM 75.2 °F 68.0 °F 78% 29.83 in 10.0 mi South 21.9 mph 28.8 mph N/A   Mostly Cloudy
12:15 PM 75.2 °F 68.0 °F 78% 29.83 in 10.0 mi South 18.4 mph 26.5 mph N/A   Mostly Cloudy
12:35 PM 75.2 °F 68.0 °F 78% 29.82 in 10.0 mi South 20.7 mph 29.9 mph N/A   Mostly Cloudy
12:55 PM 77.0 °F 68.0 °F 74% 29.81 in 10.0 mi South 19.6 mph 27.6 mph N/A   Mostly Cloudy
1:15 PM 77.0 °F 68.0 °F 74% 29.80 in 10.0 mi South 23.0 mph 29.9 mph N/A   Mostly Cloudy
1:35 PM 77.0 °F 68.0 °F 74% 29.79 in 10.0 mi SSE 18.4 mph 26.5 mph N/A   Mostly Cloudy
1:55 PM 77.0 °F 68.0 °F 74% 29.78 in 10.0 mi South 19.6 mph 25.3 mph N/A   Mostly Cloudy
2:15 PM 78.8 °F 68.0 °F 69% 29.77 in 10.0 mi SSE 18.4 mph 26.5 mph N/A   Scattered Clouds
2:35 PM 78.8 °F 68.0 °F 69% 29.76 in 10.0 mi South 20.7 mph 26.5 mph N/A   Mostly Cloudy
2:55 PM 78.8 °F 68.0 °F 69% 29.75 in 10.0 mi SSE 17.3 mph 28.8 mph N/A   Mostly Cloudy
3:35 PM 78.8 °F 68.0 °F 69% 29.72 in 10.0 mi South 20.7 mph 27.6 mph N/A   Scattered Clouds
3:55 PM 78.8 °F 66.2 °F 65% 29.72 in 10.0 mi SSE 20.7 mph 28.8 mph N/A   Scattered Clouds
4:15 PM 78.8 °F 68.0 °F 69% 29.71 in 10.0 mi South 16.1 mph 26.5 mph N/A   Mostly Cloudy
4:35 PM 78.8 °F 68.0 °F 69% 29.71 in 10.0 mi SSE 15.0 mph 23.0 mph N/A   Mostly Cloudy
4:55 PM 77.0 °F 68.0 °F 74% 29.70 in 10.0 mi SSE 18.4 mph 24.2 mph N/A   Overcast
5:15 PM 77.0 °F 68.0 °F 74% 29.70 in 10.0 mi SSE 11.5 mph 25.3 mph N/A   Overcast
5:35 PM 77.0 °F 68.0 °F 74% 29.68 in 10.0 mi SSE 17.3 mph 23.0 mph N/A   Mostly Cloudy
5:55 PM 77.0 °F 68.0 °F 74% 29.67 in 10.0 mi SSE 15.0 mph 21.9 mph N/A   Mostly Cloudy
6:15 PM 77.0 °F 68.0 °F 74% 29.66 in 10.0 mi SSE 18.4 mph 24.2 mph N/A   Mostly Cloudy
6:35 PM 77.0 °F 66.2 °F 69% 29.66 in 10.0 mi SSE 17.3 mph 21.9 mph N/A   Mostly Cloudy
6:55 PM 77.0 °F 66.2 °F 69% 29.65 in 10.0 mi SSE 15.0 mph - N/A   Mostly Cloudy
7:15 PM 77.0 °F 66.2 °F 69% 29.63 in 10.0 mi SE 18.4 mph 25.3 mph N/A   Scattered Clouds
7:35 PM 77.0 °F 66.2 °F 69% 29.62 in 10.0 mi SSE 23.0 mph 31.1 mph N/A   Clear
7:55 PM 77.0 °F 66.2 °F 69% 29.61 in 10.0 mi SSE 18.4 mph 28.8 mph N/A   Scattered Clouds
8:15 PM 77.0 °F 66.2 °F 69% 29.61 in 10.0 mi SSE 18.4 mph 31.1 mph N/A   Mostly Cloudy
8:35 PM 77.0 °F 66.2 °F 69% 29.60 in 10.0 mi SSE 18.4 mph 28.8 mph N/A   Scattered Clouds
8:55 PM 77.0 °F 66.2 °F 69% 29.60 in 10.0 mi SSE 18.4 mph 28.8 mph N/A   Scattered Clouds
9:15 PM 75.2 °F 66.2 °F 73% 29.59 in 10.0 mi SSE 23.0 mph 32.2 mph N/A   Mostly Cloudy
9:35 PM 75.2 °F 66.2 °F 73% 29.58 in 10.0 mi SSE 21.9 mph 34.5 mph N/A   Scattered Clouds
9:55 PM 75.2 °F 64.4 °F 69% 29.59 in 10.0 mi SSE 25.3 mph 35.7 mph N/A   Clear
10:15 PM 75.2 °F 64.4 °F 69% 29.56 in 10.0 mi SSE 25.3 mph 36.8 mph N/A   Scattered Clouds
10:35 PM 75.2 °F 64.4 °F 69% 29.56 in 10.0 mi SSE 28.8 mph 38.0 mph N/A   Clear
10:55 PM 75.2 °F 66.2 °F 73% 29.55 in 10.0 mi SSE 29.9 mph 40.3 mph N/A   Clear
11:15 PM 73.4 °F 66.2 °F 78% 29.55 in 10.0 mi SSE 27.6 mph 39.1 mph N/A   Scattered Clouds
11:35 PM 73.4 °F 68.0 °F 83% 29.56 in 10.0 mi South 26.5 mph 40.3 mph N/A   Mostly Cloudy
11:55 PM 73.4 °F 68.0 °F 83% 29.57 in 10.0 mi South 25.3 mph 33.4 mph N/A   Overcast